Weather in Ulyanikha

Russia / Yaroslavl Oblast     58°09′03″N   37°45′20″E
temp.,
°C
wind,
m/s
gust,
m/s
humid.,
%
clouds,
%
prec.,
mm/h
press.,
hPa
HPBL,
m
14 august, sun
sun1400:00+17ssw117555 0.0 102114
03:00+16ssw2277100 0.0 102118
06:00+17wsw11785 0.0 102212
09:00+22ese126055 0.0 1022360
12:00+25ene225034 0.0 10211389
15:00+24ne445368 0.0 1021662
18:00+21ne2468100 0.0 1020120
21:00+20e236891 0.0 102153
15 august, mon
mon1500:00+20ese226992 0.0 102135
03:00+19ene237499 0.0 102161
06:00+19e2378100 0.0 102193
09:00+20ese2372100 0.0 1022147
12:00+23e236299 0.0 1023343
15:00+25ene335175 0.0 1022680
18:00+24ese365986 0.0 1022342
21:00+21ese246490 0.0 102283
16 august, tue
tue1600:00+19se3869100 0.0 1023152
03:00+18sse367110 0.0 1023107
06:00+17sse26725 0.0 1023108
09:00+23se36547 0.0 1023371
12:00+26se4642100 0.0 10231474
15:00+27se3540100 0.0 10221829
18:00+25se36495 0.0 1021323
21:00+20se22685 0.0 102232
17 august, wed
wed1700:00+19sse35705 0.0 102285
03:00+17sse24735 0.0 102267
06:00+18sse257184 0.0 1022104
09:00+22se355696 0.0 1022326
12:00+26ese344149 0.0 10211533
15:00+26ene344194 0.0 10201483
18:00+23ene365487 0.0 1020216
21:00+19e38685 0.0 1020122
18 august, thu
thu1800:00+18se227014 0.0 102029
03:00+19se246794 0.0 102087
06:00+18ese257187 0.0 1020124
09:00+22ese355824 0.0 1020314
12:00+25ese354613 0.0 1020912
15:00+26ene33433 0.0 10191224
18:00+24ne24550 0.0 1019148
21:00+19ene23660 0.0 101934